KL-BETA B (49060 NORAD) Tracking and Keplerian Element Data

This shows tracking and keplerian element data for the satellite.

Feedback or suggestion? Click here.




ElementValue
Catalog49060
NameKL-BETA B
Epoch Orbit1178
Epoch Day300.79312839
Epoch Year2021
RAAN44.0291
Inclination89.0003
Eccentricity0.0008089
Argument of Perigee14.0833
Mean Anonmoly346.0576
Mean Motion13.97210426
Decay Rate4.6E-07
L11 49060U 21070B 21300.79312839 .00000046 00000-0 23296-4 0 9993
L22 49060 89.0003 44.0291 0008089 14.0833 346.0576 13.97210426 11788

Live tracking and technical data element details for KL-BETA B (NORAD 49060). KL-BETA B can be tracked NOW for your location showing map with azimuth and elevation plus other details from your city location.

Track the satellite on the map from your city or location and see movement details for azimuth, elevation, latitude, longitude, range, height, and movement on the map or in text.







IsCatalogInMostPopularTable: catalog: 49060, numindb: 26
Update: records affected: 1



GetName: 49060 KL-BETA B

Hit Count: updated at: Thu, 28 Oct 2021 11:44:38 GMT